| time (UTC) | temp C | wind direction | speed KPH | gust KPH | rain 1hr cm | rain 24hr cm | rain mn cm | humidity % | barometer mb |
| 20260508140319 | 7 | 185 | 4.8 | 9.7 | 0.00 | 0.00 | 0.00 | 40 | 1025.8 |
| 20260508134812 | 4 | 143 | 0.0 | 0.0 | 0.00 | 0.00 | 0.00 | 56 | 1025.6 |
| 20260508133328 | 3 | 143 | 1.6 | 6.4 | 0.00 | 0.00 | 0.00 | 61 | 1025.3 |
| 20260508131814 | 2 | 143 | 0.0 | 0.0 | 0.00 | 0.00 | 0.00 | 63 | 1025.1 |
| 20260508130329 | 2 | 143 | 0.0 | 3.2 | 0.00 | 0.00 | 0.00 | 62 | 1025.0 |
| 20260508124822 | 2 | 144 | 0.0 | 0.0 | 0.00 | 0.00 | 0.00 | 58 | 1024.9 |
| 20260508123339 | 3 | 143 | 0.0 | 4.8 | 0.00 | 0.00 | 0.00 | 56 | 1024.8 |
| 20260508121838 | 3 | 143 | 0.0 | 4.8 | 0.00 | 0.00 | 0.00 | 54 | 1024.5 |
| 20260508120353 | 4 | 143 | 1.6 | 3.2 | 0.00 | 0.00 | 0.00 | 50 | 1024.4 |
| 20260508114826 | 5 | 143 | 1.6 | 4.8 | 0.00 | 0.00 | 0.00 | 46 | 1024.5 |
| 20260508113322 | 6 | 144 | 1.6 | 8.0 | 0.00 | 0.00 | 0.00 | 41 | 1024.6 |
| 20260508111819 | 6 | 50 | 1.6 | 14.5 | 0.00 | 0.00 | 0.00 | 42 | 1024.5 |
| 20260508110332 | 6 | 127 | 1.6 | 14.5 | 0.00 | 0.00 | 0.00 | 40 | 1024.4 |
| 20260508104825 | 5 | 163 | 0.0 | 9.7 | 0.00 | 0.00 | 0.00 | 42 | 1024.6 |
| 20260508103321 | 4 | 196 | 1.6 | 6.4 | 0.00 | 0.00 | 0.00 | 48 | 1024.5 |
| 20260508101835 | 4 | 196 | 1.6 | 4.8 | 0.00 | 0.00 | 0.00 | 46 | 1024.6 |
| 20260508100328 | 5 | 196 | 0.0 | 4.8 | 0.00 | 0.00 | 0.00 | 43 | 1024.5 |
| 20260508094820 | 4 | 202 | 6.4 | 12.9 | 0.00 | 0.00 | 0.00 | 44 | 1024.6 |
| 20260508093316 | 3 | 219 | 0.0 | 6.4 | 0.00 | 0.00 | 0.00 | 45 | 1024.6 |
| 20260508091829 | 4 | 218 | 1.6 | 3.2 | 0.00 | 0.00 | 0.00 | 45 | 1024.6 |
| 20260508090323 | 5 | 219 | 1.6 | 6.4 | 0.00 | 0.00 | 0.00 | 45 | 1024.8 |
| 20260508084817 | 6 | 219 | 1.6 | 8.0 | 0.00 | 0.00 | 0.00 | 42 | 1024.8 |
| 20260508083332 | 4 | 174 | 6.4 | 14.5 | 0.00 | 0.00 | 0.00 | 44 | 1024.9 |
| 20260508081845 | 3 | 170 | 1.6 | 6.4 | 0.00 | 0.00 | 0.00 | 46 | 1024.8 |
| 20260508080340 | 3 | 170 | 1.6 | 9.7 | 0.00 | 0.00 | 0.00 | 49 | 1025.0 |
| 20260508074830 | 3 | 171 | 1.6 | 8.0 | 0.00 | 0.00 | 0.00 | 51 | 1024.9 |
| 20260508073347 | 3 | 170 | 3.2 | 6.4 | 0.00 | 0.00 | 0.00 | 50 | 1025.2 |
| 20260508071840 | 3 | 171 | 0.0 | 6.4 | 0.00 | 0.00 | 0.00 | 49 | 1025.4 |
| 20260508070337 | 3 | 170 | 1.6 | 11.3 | 0.00 | 0.00 | 0.00 | 47 | 1025.6 |
| 20260508064851 | 3 | 265 | 1.6 | 6.4 | 0.00 | 0.00 | 0.00 | 49 | 1025.6 |
| 20260508063346 | 3 | 265 | 0.0 | 6.4 | 0.00 | 0.00 | 0.00 | 45 | 1025.6 |
| 20260508061818 | 3 | 265 | 0.0 | 4.8 | 0.00 | 0.00 | 0.00 | 45 | 1025.5 |
| 20260508060312 | 3 | 265 | 0.0 | 6.4 | 0.00 | 0.00 | 0.00 | 44 | 1025.6 |
| 20260508054825 | 2 | 265 | 0.0 | 9.7 | 0.00 | 0.00 | 0.00 | 47 | 1025.5 |
| 20260508053320 | 2 | 266 | 0.0 | 6.4 | 0.00 | 0.00 | 0.00 | 46 | 1025.5 |
| 20260508051833 | 2 | 266 | 0.0 | 4.8 | 0.00 | 0.00 | 0.00 | 44 | 1025.6 |
| 20260508050320 | 2 | 266 | 0.0 | 4.8 | 0.00 | 0.00 | 0.00 | 43 | 1025.8 |
| 20260508044842 | 3 | 266 | 3.2 | 4.8 | 0.00 | 0.00 | 0.00 | 42 | 1025.8 |
| 20260508043336 | 3 | 266 | 0.0 | 0.0 | 0.00 | 0.00 | 0.00 | 39 | 1025.8 |
| 20260508041850 | 4 | 266 | 0.0 | 0.0 | 0.00 | 0.00 | 0.00 | 36 | 1025.8 |
| 20260508040343 | 4 | 266 | 0.0 | 3.2 | 0.00 | 0.00 | 0.00 | 31 | 1025.8 |
| 20260508034837 | 5 | 266 | 0.0 | 3.2 | 0.00 | 0.00 | 0.00 | 34 | 1025.9 |
| 20260508033332 | 5 | 266 | 0.0 | 0.0 | 0.00 | 0.00 | 0.00 | 29 | 1025.6 |
| 20260508031844 | 6 | 266 | 0.0 | 3.2 | 0.00 | 0.00 | 0.00 | 26 | 1025.5 |
| 20260508030317 | 8 | 266 | 0.0 | 4.8 | 0.00 | 0.00 | 0.00 | 25 | 1025.4 |
| 20260508024811 | 10 | 266 | 0.0 | 0.0 | 0.00 | 0.00 | 0.00 | 19 | 1025.2 |
| 20260508023326 | 11 | 266 | 0.0 | 12.9 | 0.00 | 0.00 | 0.00 | 15 | 1025.3 |
| 20260508021841 | 12 | 264 | 1.6 | 11.3 | 0.00 | 0.00 | 0.00 | 13 | 1024.8 |
| 20260508020314 | 12 | 280 | 4.8 | 16.1 | 0.00 | 0.00 | 0.00 | 12 | 1024.8 |
| 20260508014828 | 13 | 263 | 1.6 | 16.1 | 0.00 | 0.00 | 0.00 | 12 | 1024.7 |
| 20260508013324 | 14 | 286 | 6.4 | 16.1 | 0.00 | 0.00 | 0.00 | 11 | 1024.6 |
| 20260508011816 | 15 | 280 | 8.0 | 17.7 | 0.00 | 0.00 | 0.00 | 9 | 1024.7 |
| 20260508010314 | 16 | 267 | 4.8 | 14.5 | 0.00 | 0.00 | 0.00 | 9 | 1024.6 |
| 20260508004828 | 17 | 259 | 6.4 | 19.3 | 0.00 | 0.00 | 0.00 | 9 | 1024.5 |
| 20260508003324 | 17 | 12 | 6.4 | 16.1 | 0.00 | 0.00 | 0.00 | 10 | 1024.7 |
| 20260508001838 | 18 | 193 | 8.0 | 22.5 | 0.00 | 0.00 | 0.00 | 10 | 1024.6 |
| 20260508000327 | 18 | 291 | 9.7 | 19.3 | 0.00 | 0.00 | 0.00 | 11 | 1024.7 |
| 20260507234819 | 18 | 295 | 8.0 | 17.7 | 0.00 | 0.00 | 0.00 | 11 | 1024.9 |
| 20260507233314 | 18 | 239 | 8.0 | 17.7 | 0.00 | 0.00 | 0.00 | 10 | 1024.9 |
| 20260507231834 | 18 | 252 | 6.4 | 14.5 | 0.00 | 0.00 | 0.00 | 12 | 1024.7 |
| 20260507230327 | 18 | 206 | 6.4 | 22.5 | 0.00 | 0.00 | 0.00 | 11 | 1024.9 |
| 20260507224820 | 18 | 269 | 9.7 | 19.3 | 0.00 | 0.00 | 0.00 | 11 | 1025.1 |
| 20260507223336 | 18 | 251 | 6.4 | 20.9 | 0.00 | 0.00 | 0.00 | 11 | 1025.2 |
| 20260507221822 | 19 | 280 | 3.2 | 14.5 | 0.00 | 0.00 | 0.00 | 12 | 1025.2 |
| 20260507220317 | 18 | 249 | 8.0 | 20.9 | 0.00 | 0.00 | 0.00 | 12 | 1025.3 |
| 20260507214830 | 18 | 244 | 4.8 | 17.7 | 0.00 | 0.00 | 0.00 | 9 | 1025.5 |
| 20260507213325 | 18 | 173 | 11.3 | 24.1 | 0.00 | 0.00 | 0.00 | 12 | 1025.7 |
| 20260507211818 | 18 | 166 | 8.0 | 20.9 | 0.00 | 0.00 | 0.00 | 13 | 1026.0 |
| 20260507210331 | 18 | 263 | 8.0 | 17.7 | 0.00 | 0.00 | 0.00 | 10 | 1026.1 |
| 20260507204824 | 17 | 309 | 3.2 | 25.7 | 0.00 | 0.00 | 0.00 | 13 | 1026.3 |
| 20260507203318 | 17 | 182 | 6.4 | 17.7 | 0.00 | 0.00 | 0.00 | 14 | 1026.4 |
| 20260507201830 | 17 | 185 | 6.4 | 14.5 | 0.00 | 0.00 | 0.00 | 14 | 1026.5 |
| 20260507200324 | 16 | 276 | 6.4 | 19.3 | 0.00 | 0.00 | 0.00 | 13 | 1026.6 |
| 20260507194818 | 16 | 266 | 6.4 | 16.1 | 0.00 | 0.00 | 0.00 | 14 | 1026.9 |
| 20260507193314 | 16 | 187 | 6.4 | 19.3 | 0.00 | 0.00 | 0.00 | 17 | 1026.9 |
| 20260507191848 | 15 | 243 | 6.4 | 17.7 | 0.00 | 0.03 | 0.00 | 19 | 1027.0 |
| 20260507190320 | 15 | 260 | 6.4 | 19.3 | 0.00 | 0.03 | 0.00 | 24 | 1026.9 |
| 20260507184813 | 14 | 204 | 8.0 | 16.1 | 0.00 | 0.03 | 0.00 | 19 | 1027.0 |
| 20260507183329 | 13 | 285 | 1.6 | 16.1 | 0.00 | 0.03 | 0.00 | 18 | 1027.0 |
| 20260507181843 | 13 | 204 | 11.3 | 17.7 | 0.00 | 0.05 | 0.00 | 19 | 1027.1 |
| 20260507180315 | 13 | 179 | 4.8 | 16.1 | 0.00 | 0.05 | 0.00 | 21 | 1027.2 |
| 20260507174825 | 13 | 233 | 9.7 | 16.1 | 0.00 | 0.05 | 0.00 | 21 | 1027.3 |
| 20260507173325 | 12 | 226 | 8.0 | 11.3 | 0.00 | 0.05 | 0.00 | 22 | 1027.6 |
| 20260507171817 | 11 | 173 | 3.2 | 19.3 | 0.00 | 0.10 | 0.00 | 26 | 1027.7 |
| 20260507170355 | 11 | 149 | 8.0 | 16.1 | 0.00 | 0.10 | 0.00 | 27 | 1027.7 |
| 20260507164832 | 10 | 179 | 8.0 | 14.5 | 0.00 | 0.10 | 0.00 | 30 | 1027.7 |
| 20260507163320 | 9 | 174 | 6.4 | 16.1 | 0.00 | 0.10 | 0.00 | 30 | 1027.8 |
| 20260507161820 | 8 | 183 | 4.8 | 16.1 | 0.00 | 0.20 | 0.00 | 29 | 1027.8 |
| 20260507160334 | 8 | 213 | 3.2 | 12.9 | 0.00 | 0.20 | 0.00 | 31 | 1027.7 |
| 20260507154826 | 7 | 192 | 3.2 | 8.0 | 0.00 | 0.20 | 0.00 | 31 | 1027.5 |
| 20260507153314 | 7 | 181 | 4.8 | 12.9 | 0.00 | 0.20 | 0.00 | 35 | 1027.6 |
| 20260507151827 | 6 | 194 | 6.4 | 14.5 | 0.00 | 0.33 | 0.00 | 35 | 1027.5 |
| 20260507150322 | 5 | 220 | 3.2 | 11.3 | 0.00 | 0.33 | 0.00 | 38 | 1027.7 |
| 20260507144814 | 4 | 197 | 1.6 | 8.0 | 0.00 | 0.33 | 0.00 | 36 | 1027.6 |
| 20260507143330 | 1 | 54 | 0.0 | 4.8 | 0.00 | 0.33 | 0.00 | 45 | 1027.3 |
| 20260507141822 | -1 | 54 | 0.0 | 0.0 | 0.00 | 0.33 | 0.00 | 66 | 1027.3 |